Regional Weather Roundup
Issued by NWS

Home | Current Version | Previous Version | Graphics & Text | Print | Product List | Glossary On
Versions: 1 2 3 4 5 6 7 8 9 10 11 12 13 14 15 16 17 18 19 20 21 22 23 24 25 26 27 28 29 30 31 32 33 34 35 36 37 38 39 40 41 42 43 44 45 46 47 48 49 50
056
ASUS45 KCYS 292110
RWRWY

WYOMING REGIONAL WEATHER ROUNDUP
NATIONAL WEATHER SERVICE CHEYENNE WY
300 PM MDT FRI APR 29 2016

NOTE:  "FAIR" INDICATES FEW OR NO CLOUDS BELOW 12,000 FEET
WITH NO SIGNIFICANT WEATHER AND/OR OBSTRUCTIONS TO VISIBILITY.

WYZ001-292200-
YELLOWSTONE NATIONAL PARK

CITY           SKY/WX    TMP DP  RH WIND       PRES   REMARKS
LK YELLOWSTONE   N/A     42  16  34 SE6       29.88F
W YELLOWSTONE  NOT AVBL

$$
WYZ002>013-054>058-071-098>099-292200-
NORTHERN WYOMING

CITY           SKY/WX    TMP DP  RH WIND       PRES   REMARKS
JACKSON        MOSUNNY   48  27  43 S8        29.84F
CODY           CLOUDY    45  30  57 E7        29.93R
GREYBULL       CLOUDY    51  25  36 S5        29.92S
WORLAND        CLOUDY    48  29  47 VRB5      29.93S
SHERIDAN       CLOUDY    46  32  58 SE9       29.98S
BUFFALO          N/A    N/A N/A N/A MISG      29.99R
GILLETTE       CLOUDY    46  33  60 N9        29.98F
HULETT         CLOUDY    43  36  75 E10G22    30.04S
NEWCASTLE      MOCLDY    45  34  65 SE6       30.02S

$$
WYZ014>020-022>026-101>103-292200-
CENTRAL WYOMING

CITY           SKY/WX    TMP DP  RH WIND       PRES   REMARKS
BIG PINEY      CLOUDY    42  24  49 VRB3      29.89S
PINEDALE       CLOUDY    41  27  56 S6        29.89S
DUBOIS         MOCLDY    37  27  65 E6        29.89F WCI  33
LANDER         LGT RAIN  38  31  76 SE3       29.92F
RIVERTON       LGT SNOW  36  32  85 CALM      29.94S FOG
CASPER         CLOUDY    40  30  67 E20       29.93S WCI  30
DOUGLAS        CLOUDY    41  33  73 E15       29.97F

$$
WYZ021-027>030-104>119-292200-
SOUTHERN WYOMING

CITY           SKY/WX    TMP DP  RH WIND       PRES   REMARKS
EVANSTON       CLOUDY    40  27  59 CALM      29.89F
KEMMERER         N/A     36  28  75 SW3       29.90F
FORT BRIDGER   CLOUDY    37  36  93 NW5       29.93S WCI  34
ROCK SPRINGS   CLOUDY    40  30  67 VRB7      29.89F
DIXON          CLOUDY    46  32  59 NW8       29.85F
RAWLINS        CLOUDY    36  31  82 NE17      29.88R HAZE    WCI  26
SARATOGA       LGT RAIN  37  36  93 NW8       29.85S WCI  31
LARAMIE        LGT SNOW  32  29  88 E12       29.88S VSB 1   WCI  23
CHEYENNE       SNOW      32  31  96 E10       29.94S VSB 1/2 WCI  24
TORRINGTON     CLOUDY    43  34  70 NE16      29.95F
PINE BLUFFS    LGT SNOW  32  32 100 CALM      29.97S VSB 3/4

$$




USA.gov is the U.S. government's official web portal to all federal, state and local government web resources and services.